R/V Atlantis Calliope CSV data file  (Time stamps are GMT)
Date, Time_GMT, Dec_Lat, Dec_Lon, Depth12, Depth35, GPS_COG, GPS_SOG, Gyro, Air_Temp, IMET_BPR, IMET_SWR, HRH, PhinsHd, SBE45C, SBE45S, SBE45T, Salinity, SSTMP, SSV, SSCND, SST_FSI, SST_SBE48, Wnd_Dir, Wnd_Spd, HdChkSum=1B
2009/03/22, 00:00:03, 24.503633, -112.742483, , , 320.0, 12.10, 320.7, 17.231, 1012.39, 385.9, 74.466, 320.1, , , , 34.0442, 19.8711, 1520.0347, 46.6170, 10.2008, 19.8711, 315.0, 5.6645, 1B
2009/03/22, 00:01:02, 24.506167, -112.744833, , , 320.0, 12.20, 319.3, 17.247, 1012.63, 246.0, 75.217, 318.4, , , , 34.0706, 19.8690, 1520.0584, 46.6471, 10.3112, 19.8690, 301.4, 6.0361, 1B
2009/03/22, 00:02:02, 24.508717, -112.747233, , , 319.0, 11.90, 320.2, 17.239, 1012.56, 157.1, 74.979, 319.1, , , , 34.0561, 19.8650, 1520.0310, 46.6254, 10.3024, 19.8650, 305.0, 6.1639, 1B
2009/03/22, 00:03:01, 24.511250, -112.749583, , , 320.0, 12.00, 319.6, 17.208, 1012.55, 212.9, 73.952, 319.2, , , , 34.0569, 19.8611, 1520.0202, 46.6223, 10.3505, 19.8611, 303.2, 6.9147, 1B
2009/03/22, 00:04:01, 24.513800, -112.751950, , , 320.0, 11.90, 320.0, 17.185, 1012.61, 135.8, 73.469, 319.0, , , , 34.0716, 19.8558, 1520.0255, 46.6363, 10.2473, 19.8558, 312.2, 6.4124, 1B
2009/03/22, 00:05:02, 24.516333, -112.754317, , , 320.0, 11.90, 319.4, 17.178, 1012.69, 191.1, 73.032, 318.5, , , , 34.0553, 19.8502, 1519.9889, 46.6098, 10.3425, 19.8502, 316.1, 6.3790, 1B
2009/03/22, 00:06:01, 24.518883, -112.756700, , , 318.0, 12.00, 320.1, 17.201, 1012.69, 138.1, 74.389, 319.7, , , , 34.0563, 19.8434, 1519.9747, 46.6056, 10.3348, 19.8434, 304.2, 5.8034, 1B
2009/03/22, 00:07:02, 24.521433, -112.759067, , , 318.0, 12.00, 319.8, 17.224, 1012.66, 194.2, 75.148, 319.4, , , , 34.0422, 19.8354, 1519.9330, 46.5791, 10.3380, 19.8354, 306.9, 5.4262, 1B
2009/03/22, 00:08:01, 24.524000, -112.761433, , , 319.0, 12.20, 319.7, 17.193, 1012.56, 171.8, 73.623, 318.6, , , , 34.0365, 19.8267, 1519.9071, 46.5652, 10.2770, 19.8267, 302.5, 5.8021, 1B
2009/03/22, 00:09:01, 24.526533, -112.763833, , , 319.0, 12.00, 320.2, 17.224, 1012.41, 134.6, 73.546, 319.4, , , , 34.0449, 19.8145, 1519.8844, 46.5641, 10.2142, 19.8145, 307.3, 5.8518, 1B
2009/03/22, 00:10:01, 24.529083, -112.766200, , , 319.0, 11.70, 319.4, 17.224, 1012.49, 182.1, 73.546, 319.1, , , , 34.0100, 19.7981, 1519.8007, 46.4767, 10.2409, 19.7981, 299.9, 5.9007, 1B
2009/03/22, 00:11:01, 24.531633, -112.768583, , , 320.0, 12.30, 320.4, 17.278, 1012.62, 121.1, 75.347, 319.1, , , , 34.0023, 19.7805, 1519.7424, 46.4787, 10.2379, 19.7805, 312.5, 5.4390, 1B
2009/03/22, 00:12:01, 24.534183, -112.770933, , , 320.0, 12.10, 320.5, 17.224, 1012.46, 138.6, 75.071, 320.3, , , , 33.9411, 19.7600, 1519.6222, 46.3857, 10.3165, 19.7600, 306.5, 6.1724, 1B
2009/03/22, 00:13:02, 24.536783, -112.773250, , , 319.0, 11.80, 319.4, 17.255, 1012.49, 156.7, 74.749, 318.4, , , , 33.9520, 19.7351, 1519.5519, 46.3699, 10.0542, 19.7351, 298.4, 5.9365, 1B
2009/03/22, 00:14:01, 24.539367, -112.775617, , , 320.0, 12.20, 319.1, 17.231, 1012.51, 94.5, 74.259, 318.1, , , , 33.9621, 19.7096, 1519.5045, 46.3615, 10.2521, 19.7096, 300.7, 6.5346, 1B
2009/03/22, 00:15:01, 24.541867, -112.778017, , , 319.0, 11.90, 319.3, 17.231, 1012.37, 98.2, 74.259, 318.7, , , , 33.9402, 19.6803, 1519.3996, 46.3064, 10.1182, 19.6803, 304.1, 6.3417, 1B
2009/03/22, 00:16:01, 24.544383, -112.780333, , , 318.0, 11.50, 319.9, 17.208, 1012.59, 101.2, 74.366, 319.3, , , , 33.8940, 19.6483, 1519.2535, 46.2136, 10.1328, 19.6483, 316.2, 5.7505, 1B
2009/03/22, 00:17:02, 24.546917, -112.782683, , , 318.0, 12.00, 319.7, 17.201, 1012.57, 114.6, 74.489, 318.9, , , , 33.9372, 19.6163, 1519.2025, 46.2346, 10.1104, 19.6163, 315.5, 6.6068, 1B
2009/03/22, 00:18:01, 24.549467, -112.785000, , , 323.0, 11.70, 320.6, 17.162, 1012.51, 100.1, 73.945, 320.5, , , , 33.8657, 19.5906, 1519.0654, 46.1277, 10.1008, 19.5906, 305.9, 6.9948, 1B
2009/03/22, 00:19:02, 24.552050, -112.787317, , , 319.0, 12.20, 319.9, 17.154, 1012.72, 107.4, 74.236, 319.0, , , , 33.8739, 19.5626, 1518.9807, 46.1047, 9.9153, 19.5626, 302.7, 6.1820, 1B
2009/03/22, 00:20:02, 24.554617, -112.789650, , , 320.0, 12.20, 319.6, 17.170, 1012.50, 103.5, 75.056, 318.8, , , , 33.9046, 19.5356, 1518.9393, 46.1154, 9.8712, 19.5356, 303.6, 5.5791, 1B
2009/03/22, 00:21:02, 24.557183, -112.792017, , , 318.0, 12.10, 319.5, 17.131, 1012.76, 103.7, 75.179, 318.9, , , , 33.9076, 19.5095, 1518.8692, 46.0933, 9.9795, 19.5095, 300.9, 5.4540, 1B
2009/03/22, 00:22:02, 24.559750, -112.794367, , , 321.0, 11.90, 319.8, 17.139, 1012.61, 120.4, 74.550, 319.3, , , , 33.9027, 19.4822, 1518.7868, 46.0605, 9.9168, 19.4822, 310.1, 6.2079, 1B
2009/03/22, 00:23:02, 24.562283, -112.796733, , , 318.0, 11.90, 319.2, 17.139, 1012.48, 114.1, 73.952, 318.4, , , , 33.9421, 19.4568, 1518.7595, 46.0833, 9.9729, 19.4568, 313.1, 6.4251, 1B
2009/03/22, 00:24:02, 24.564817, -112.799100, , , 320.0, 11.90, 320.0, 17.139, 1012.69, 103.6, 74.313, 319.5, , , , 33.9376, 19.4324, 1518.6857, 46.0538, 10.0855, 19.4324, 313.6, 5.8137, 1B
2009/03/22, 00:25:02, 24.567350, -112.801433, , , 319.0, 12.00, 319.3, 17.139, 1012.76, 81.4, 74.527, 318.9, , , , 33.9090, 19.4023, 1518.5687, 45.9894, 9.7087, 19.4023, 304.1, 6.5973, 1B
2009/03/22, 00:26:02, 24.569883, -112.803800, , , 320.0, 12.20, 319.3, 17.116, 1012.66, 72.1, 73.561, 318.7, , , , 33.8575, 19.3626, 1518.3987, 45.8881, 9.7333, 19.3626, 296.9, 6.7957, 1B
2009/03/22, 00:27:02, 24.572400, -112.806200, , , 321.0, 11.60, 319.2, 17.131, 1012.83, 90.8, 74.159, 318.7, , , , 33.8615, 19.3207, 1518.2847, 45.8517, 9.7334, 19.3207, 292.8, 6.6008, 1B
2009/03/22, 00:28:01, 24.574950, -112.808617, , , 318.0, 11.90, 319.6, 17.116, 1012.73, 91.6, 74.121, 319.2, , , , 33.8473, 19.2838, 1518.1799, 45.8037, 9.8601, 19.2838, 314.8, 5.9713, 1B
2009/03/22, 00:29:01, 24.577483, -112.810983, , , 319.0, 11.70, 319.7, 17.139, 1012.72, 106.2, 74.558, 319.4, , , , 33.8872, 19.2541, 1518.1375, 45.8070, 9.7457, 19.2541, 302.9, 6.6418, 1B
2009/03/22, 00:30:02, 24.580017, -112.813367, , , 319.0, 12.20, 320.2, 17.139, 1012.71, 91.2, 74.282, 319.3, , , , 33.8830, 19.2285, 1518.0478, 45.7870, 9.7810, 19.2285, 293.3, 6.9451, 1B
2009/03/22, 00:31:02, 24.582450, -112.815667, , , 318.0, 11.80, 319.3, 17.124, 1012.86, 62.2, 74.688, 319.0, , , , 33.8923, 19.2080, 1518.0001, 45.7781, 9.9306, 19.2080, 291.2, 7.0583, 1B
2009/03/22, 00:32:01, 24.584950, -112.818067, , , 320.0, 11.80, 319.9, 17.139, 1012.95, 67.3, 74.512, 318.8, , , , 33.9249, 19.1919, 1517.9976, 45.8039, 9.7223, 19.1919, 294.7, 7.1401, 1B
2009/03/22, 00:33:02, 24.587433, -112.820450, , , 320.0, 12.00, 319.1, 17.124, 1012.98, 44.3, 74.772, 318.8, , , , 33.9290, 19.1778, 1517.9557, 45.7927, 9.8578, 19.1778, 296.5, 6.7685, 1B
2009/03/22, 00:34:02, 24.589917, -112.822817, , , 319.0, 11.80, 319.8, 17.147, 1013.06, 42.0, 75.386, 319.6, , , , 33.9551, 19.1670, 1517.9544, 45.8135, 9.7916, 19.1670, 300.1, 6.0117, 1B
2009/03/22, 00:35:02, 24.592517, -112.825283, , , 320.0, 12.10, 321.4, 17.131, 1012.95, 51.0, 75.608, 322.1, , , , 33.9343, 19.1582, 1517.9060, 45.7798, 9.7236, 19.1582, 305.6, 6.0754, 1B
2009/03/22, 00:36:02, 24.595083, -112.827567, , , 321.0, 12.00, 321.6, 17.108, 1012.89, 58.4, 74.788, 321.2, , , , 33.9531, 19.1492, 1517.9016, 45.7936, 9.7956, 19.1492, 304.2, 7.2409, 1B
2009/03/22, 00:37:02, 24.597683, -112.829883, , , 320.0, 12.40, 321.5, 17.124, 1012.97, 51.6, 74.857, 321.0, , , , 33.9161, 19.1399, 1517.8335, 45.7398, 9.6413, 19.1399, 293.6, 7.3845, 1B
2009/03/22, 00:38:01, 24.600267, -112.832183, , , 321.0, 11.80, 321.9, 17.093, 1012.94, 43.3, 74.244, 321.4, , , , 33.9349, 19.1295, 1517.8285, 45.7535, 9.6815, 19.1295, 296.4, 7.3706, 1B
2009/03/22, 00:39:02, 24.602850, -112.834450, , , 321.0, 11.70, 322.0, 17.085, 1012.81, 41.3, 74.420, 321.4, , , , 33.9530, 19.1219, 1517.8239, 45.7666, 9.9003, 19.1219, 303.6, 7.0720, 1B
2009/03/22, 00:40:01, 24.605417, -112.836733, , , 320.0, 11.70, 321.4, 17.047, 1012.99, 37.2, 74.198, 321.1, , , , 33.9398, 19.1181, 1517.8010, 45.7479, 9.7030, 19.1181, 303.0, 7.2635, 1B
2009/03/22, 00:41:02, 24.607967, -112.839050, , , 320.0, 11.60, 321.8, 17.070, 1012.92, 46.1, 74.903, 321.6, , , , 33.9843, 19.1152, 1517.8400, 45.7976, 9.6883, 19.1152, 297.4, 6.2061, 1B
2009/03/22, 00:42:02, 24.610517, -112.841350, , , 320.0, 12.00, 321.3, 17.047, 1012.96, 48.4, 74.075, 321.0, , , , 33.9718, 19.1150, 1517.8254, 45.7824, 9.7808, 19.1150, 304.0, 7.1624, 1B
2009/03/22, 00:43:02, 24.613050, -112.843667, , , 320.0, 11.90, 321.7, 17.023, 1013.11, 49.2, 73.914, 321.2, , , , 33.9949, 19.1172, 1517.8576, 45.8124, 9.8872, 19.1172, 302.3, 6.7362, 1B
2009/03/22, 00:44:02, 24.615583, -112.845983, , , 320.0, 11.80, 321.9, 17.023, 1013.26, 46.8, 73.776, 321.3, , , , 33.9725, 19.1197, 1517.8395, 45.7879, 9.9453, 19.1197, 294.7, 6.7989, 1B
2009/03/22, 00:45:01, 24.618150, -112.848300, , , 320.0, 12.20, 321.3, 17.008, 1013.14, 45.8, 74.167, 321.0, , , , 33.9614, 19.1207, 1517.8290, 45.7752, 9.8204, 19.1207, 294.7, 7.0297, 1B
2009/03/22, 00:46:01, 24.620667, -112.850617, , , 321.0, 11.40, 322.0, 17.016, 1013.02, 48.3, 74.527, 321.7, , , , 34.0014, 19.1260, 1517.8900, 45.8289, 9.9637, 19.1260, 301.3, 6.9989, 1B
2009/03/22, 00:47:02, 24.623200, -112.852933, , , 320.0, 11.60, 321.5, 17.062, 1013.04, 49.1, 76.213, 321.2, , , , 34.0117, 19.1353, 1517.9280, 45.8504, 9.8192, 19.1353, 291.6, 7.1582, 1B
2009/03/22, 00:48:02, 24.625767, -112.855217, , , 324.0, 12.10, 321.9, 17.031, 1013.08, 46.9, 75.240, 321.7, , , , 34.0167, 19.1410, 1517.9498, 45.8621, 9.9689, 19.1410, 299.0, 7.1761, 1B
2009/03/22, 00:49:02, 24.628300, -112.857533, , , 320.0, 12.10, 321.7, 17.031, 1013.08, 51.3, 74.428, 321.3, , , , 33.9804, 19.1451, 1517.9206, 45.8224, 9.9127, 19.1451, 293.3, 7.5716, 1B
2009/03/22, 00:50:02, 24.630850, -112.859833, , , 318.0, 11.60, 322.2, 17.023, 1012.99, 58.7, 74.305, 321.5, , , , 34.0426, 19.1499, 1518.0043, 45.9020, 9.9071, 19.1499, 300.0, 7.4693, 1B
2009/03/22, 00:51:02, 24.633400, -112.862133, , , 321.0, 11.70, 321.5, 17.031, 1013.06, 57.3, 75.286, 321.3, , , , 34.0319, 19.1596, 1518.0198, 45.8987, 9.8212, 19.1596, 298.3, 7.5077, 1B
2009/03/22, 00:52:02, 24.635950, -112.864467, , , 322.0, 12.50, 322.3, 17.000, 1012.94, 54.9, 74.834, 321.9, , , , 34.0384, 19.1682, 1518.0515, 45.9150, 9.8621, 19.1682, 293.5, 6.8550, 1B
2009/03/22, 00:53:02, 24.638467, -112.866783, , , 320.0, 12.10, 321.3, 16.985, 1013.00, 56.9, 74.573, 321.1, , , , 34.0396, 19.1747, 1518.0713, 45.9228, 9.8985, 19.1747, 296.6, 6.7951, 1B
2009/03/22, 00:54:02, 24.640983, -112.869083, , , 321.0, 11.80, 324.7, 16.985, 1012.86, 54.9, 74.826, 323.9, , , , 34.0954, 19.1811, 1518.1522, 45.9964, 10.0568, 19.1811, 314.6, 6.8580, 1B
2009/03/22, 00:55:02, 24.643583, -112.871317, , , 320.0, 11.70, 321.6, 16.970, 1013.02, 54.5, 74.504, 321.0, , , , 34.0334, 19.1897, 1518.1069, 45.9302, 10.0019, 19.1897, 300.3, 6.8640, 1B
2009/03/22, 00:56:01, 24.646133, -112.873633, , , 322.0, 11.60, 322.3, 17.000, 1013.11, 55.7, 75.723, 322.2, , , , 34.0477, 19.1961, 1518.1374, 45.9524, 9.8796, 19.1961, 297.6, 5.8580, 1B
2009/03/22, 00:57:01, 24.648717, -112.875850, , , 322.0, 11.70, 322.7, 16.993, 1012.89, 57.2, 75.669, 322.9, , , , 34.0397, 19.2032, 1518.1483, 45.9497, 9.9911, 19.2032, 299.4, 6.9911, 1B
2009/03/22, 00:58:01, 24.651267, -112.878067, , , 322.0, 11.70, 321.8, 16.954, 1013.11, 59.7, 74.412, 322.1, , , , 34.0511, 19.2093, 1518.1798, 45.9699, 9.8730, 19.2093, 293.9, 7.4462, 1B
2009/03/22, 00:59:01, 24.653850, -112.880317, , , 323.0, 11.80, 323.2, 16.954, 1013.08, 60.2, 74.412, 322.4, , , , 34.0120, 19.2157, 1518.1532, 45.9288, 9.8701, 19.2157, 297.8, 6.1930, 1B
2009/03/22, 01:00:02, 24.656450, -112.882500, , , 322.0, 11.80, 322.2, 16.931, 1013.06, 58.6, 74.052, 321.8, , , , 34.0364, 19.2222, 1518.2024, 45.9659, 9.9223, 19.2222, 294.2, 7.3229, 1B
2009/03/22, 01:01:02, 24.659017, -112.884717, , , 321.0, 11.90, 322.4, 16.916, 1013.30, 60.1, 74.121, 322.2, , , , 34.0192, 19.2273, 1518.1975, 45.9501, 9.8995, 19.2273, 294.5, 6.8542, 1B
2009/03/22, 01:02:02, 24.661617, -112.886917, , , 321.0, 11.70, 322.7, 16.916, 1012.93, 59.9, 74.504, 322.4, , , , 34.0160, 19.2307, 1518.2036, 45.9497, 10.1935, 19.2307, 295.3, 7.3094, 1B
2009/03/22, 01:03:02, 24.664217, -112.889133, , , 321.0, 12.00, 322.5, 16.939, 1013.03, 59.1, 75.631, 322.1, , , , 34.0649, 19.2347, 1518.2699, 46.0125, 9.9859, 19.2347, 289.0, 6.6306, 1B
2009/03/22, 01:04:02, 24.666800, -112.891333, , , 320.0, 12.20, 322.7, 16.923, 1012.93, 58.5, 75.370, 322.1, , , , 34.0376, 19.2376, 1518.2474, 45.9825, 9.9932, 19.2376, 288.6, 6.6882, 1B
2009/03/22, 01:05:02, 24.669417, -112.893517, , , 322.0, 11.90, 323.0, 16.939, 1012.96, 58.0, 74.941, 322.8, , , , 34.0416, 19.2391, 1518.2562, 45.9888, 9.8945, 19.2391, 288.7, 6.5138, 1B
2009/03/22, 01:06:02, 24.672050, -112.895700, , , 322.0, 11.80, 322.5, 16.923, 1012.98, 57.9, 74.749, 322.0, , , , 34.0180, 19.2393, 1518.2302, 45.9606, 9.9762, 19.2393, 283.8, 5.9576, 1B
2009/03/22, 01:07:02, 24.674583, -112.897833, , , 323.0, 11.70, 322.6, 16.908, 1012.90, 56.3, 74.703, 322.1, , , , 33.9805, 19.2379, 1518.1841, 45.9139, 9.8715, 19.2379, 283.7, 7.1474, 1B
2009/03/22, 01:08:01, 24.677283, -112.900117, , , 323.0, 11.60, 323.0, 16.908, 1013.03, 54.3, 74.703, 322.3, , , , 34.0077, 19.2344, 1518.2073, 45.9636, 9.8472, 19.2344, 290.8, 6.9290, 1B
2009/03/22, 01:09:01, 24.679933, -112.902267, , , 324.0, 12.00, 322.7, 16.916, 1013.08, 53.7, 75.761, 322.7, , , , 33.9979, 19.2306, 1518.1872, 45.9292, 9.9882, 19.2306, 296.2, 6.6848, 1B
2009/03/22, 01:10:02, 24.682550, -112.904433, , , 324.0, 11.70, 322.7, 16.923, 1013.13, 54.7, 75.094, 322.4, , , , 34.0488, 19.2252, 1518.2249, 45.9838, 9.9417, 19.2252, 295.2, 6.8215, 1B
2009/03/22, 01:11:01, 24.685200, -112.906600, , , 322.0, 12.00, 322.7, 16.923, 1012.98, 57.4, 74.497, 322.3, , , , 33.9843, 19.2216, 1518.1426, 45.9024, 9.9219, 19.2216, 293.2, 6.9028, 1B
2009/03/22, 01:12:01, 24.687850, -112.908783, , , 322.0, 11.80, 323.2, 16.923, 1013.01, 55.7, 75.156, 322.4, , , , 34.0146, 19.2166, 1518.1640, 45.9348, 9.9464, 19.2166, 292.1, 5.9724, 1B
2009/03/22, 01:13:01, 24.690517, -112.910967, , , 322.0, 11.90, 322.4, 16.916, 1013.08, 49.2, 75.025, 322.0, , , , 34.0356, 19.2109, 1518.1732, 45.9550, 9.9960, 19.2109, 300.0, 5.8969, 1B
2009/03/22, 01:14:01, 24.693100, -112.913083, , , 323.0, 11.50, 323.1, 16.970, 1012.73, 46.1, 76.627, 322.5, , , , 33.9889, 19.2045, 1518.1005, 45.8917, 9.8686, 19.2045, 298.1, 5.3983, 1B
2009/03/22, 01:15:01, 24.695800, -112.915383, , , 320.0, 11.90, 320.7, 16.946, 1012.90, 43.6, 76.872, 320.2, , , , 33.9642, 19.1944, 1518.0475, 45.8532, 9.8749, 19.1944, 297.6, 5.6691, 1B
2009/03/22, 01:16:02, 24.698333, -112.917583, , , 324.0, 12.30, 321.9, 16.923, 1013.12, 41.8, 75.784, 321.6, , , , 33.9533, 19.1823, 1517.9958, 45.8264, 9.8543, 19.1823, 283.5, 6.1810, 1B
2009/03/22, 01:17:01, 24.700967, -112.919833, , , 321.0, 11.90, 321.7, 16.916, 1013.03, 40.9, 75.317, 321.6, , , , 33.9207, 19.1684, 1517.9259, 45.7756, 9.7749, 19.1684, 291.7, 5.8955, 1B
2009/03/22, 01:18:02, 24.703617, -112.922100, , , 321.0, 12.00, 321.3, 16.916, 1013.00, 39.5, 75.646, 321.2, , , , 33.9661, 19.1524, 1517.9253, 45.8124, 9.7788, 19.1524, 293.1, 5.8629, 1B
2009/03/22, 01:19:01, 24.706267, -112.924400, , , 323.0, 11.70, 321.1, 16.916, 1013.00, 38.3, 75.508, 321.2, , , , 33.8959, 19.1324, 1517.7997, 45.7117, 9.8301, 19.1324, 292.4, 6.2875, 1B
2009/03/22, 01:20:01, 24.708983, -112.926767, , , 322.0, 11.70, 321.7, 16.916, 1012.75, 36.0, 75.662, 321.2, , , , 33.8661, 19.1113, 1517.6959, 45.6516, 9.7684, 19.1113, 307.8, 6.2111, 1B
2009/03/22, 01:21:02, 24.711617, -112.929083, , , 321.0, 12.30, 320.7, 16.885, 1012.77, 33.7, 75.393, 320.5, , , , 33.8743, 19.0813, 1517.6198, 45.6320, 9.6192, 19.0813, 294.4, 5.9791, 1B
2009/03/22, 01:22:02, 24.714250, -112.931417, , , 323.0, 12.00, 322.2, 16.862, 1012.94, 32.0, 74.964, 321.8, , , , 33.8498, 19.0489, 1517.4999, 45.5707, 9.6501, 19.0489, 298.2, 6.1893, 1B
2009/03/22, 01:23:02, 24.716933, -112.933700, , , 322.0, 12.10, 321.7, 16.877, 1012.88, 30.6, 75.056, 321.0, , , , 33.8520, 19.0190, 1517.4171, 45.5440, 9.7465, 19.0190, 294.3, 6.0182, 1B
2009/03/22, 01:24:01, 24.719600, -112.936000, , , 322.0, 11.80, 321.9, 16.885, 1012.83, 29.4, 75.409, 321.8, , , , 33.8587, 18.9900, 1517.3556, 45.5283, 9.7313, 18.9900, 296.1, 6.2535, 1B
2009/03/22, 01:25:01, 24.722300, -112.938250, , , 321.0, 12.00, 321.7, 16.900, 1012.83, 28.6, 76.052, 321.0, , , , 33.8651, 18.9633, 1517.2832, 45.5087, 9.6497, 18.9633, 282.7, 6.6699, 1B
2009/03/22, 01:26:02, 24.725000, -112.940550, , , 323.0, 12.40, 321.6, 16.931, 1012.93, 29.7, 77.302, 321.1, , , , 33.8562, 18.9392, 1517.1940, 45.4708, 9.6069, 18.9392, 284.6, 5.8261, 1B
2009/03/22, 01:27:01, 24.727700, -112.942817, , , 323.0, 12.50, 322.2, 16.885, 1013.01, 27.7, 75.991, 321.8, , , , 33.8482, 18.9178, 1517.1239, 45.4403, 9.5586, 18.9178, 286.4, 6.6871, 1B
2009/03/22, 01:28:01, 24.730417, -112.945050, , , 322.0, 11.70, 321.9, 16.892, 1012.86, 26.3, 75.493, 321.7, , , , 33.8880, 18.8966, 1517.1081, 45.4671, 9.6136, 18.8966, 284.5, 6.3682, 1B
2009/03/22, 01:29:01, 24.733133, -112.947300, , , 323.0, 12.60, 321.0, 16.892, 1012.88, 25.4, 76.022, 320.5, , , , 33.8863, 18.8779, 1517.0527, 45.4468, 9.5411, 18.8779, 289.0, 5.9116, 1B
2009/03/22, 01:30:02, 24.735783, -112.949600, , , 322.0, 11.60, 321.2, 16.877, 1013.02, 28.9, 76.321, 320.5, , , , 33.8501, 18.8568, 1516.9514, 45.3828, 9.5159, 18.8568, 281.0, 6.1250, 1B
2009/03/22, 01:31:01, 24.738400, -112.951867, , , 322.0, 11.70, 322.0, 16.869, 1012.89, 25.3, 76.014, 321.6, , , , 33.8646, 18.8298, 1516.9045, 45.3785, 9.5712, 18.8298, 291.5, 5.9206, 1B
2009/03/22, 01:32:02, 24.741017, -112.954150, , , 320.0, 11.90, 320.9, 16.839, 1012.92, 19.0, 75.286, 320.5, , , , 33.8492, 18.7971, 1516.7793, 45.3232, 9.4700, 18.7971, 282.5, 6.4157, 1B
2009/03/22, 01:33:02, 24.743617, -112.956483, , , 322.0, 12.30, 322.1, 16.854, 1012.98, 17.4, 75.884, 322.0, , , , 33.8269, 18.7613, 1516.6514, 45.2615, 9.4746, 18.7613, 282.3, 5.9501, 1B
2009/03/22, 01:34:01, 24.746217, -112.958750, , , 322.0, 11.50, 321.5, 16.815, 1013.05, 16.9, 75.470, 320.8, , , , 33.8001, 18.7235, 1516.5309, 45.1987, 9.3885, 18.7235, 289.3, 6.7227, 1B
2009/03/22, 01:35:01, 24.748817, -112.961050, , , 321.0, 11.80, 322.0, 16.846, 1013.00, 15.2, 76.374, 321.8, , , , 33.8021, 18.6850, 1516.4216, 45.1804, 9.3081, 18.6850, 290.1, 5.9907, 1B
2009/03/22, 01:36:02, 24.751400, -112.963367, , , 322.0, 12.20, 321.6, 16.831, 1012.92, 13.9, 76.711, 320.9, , , , 33.7697, 18.6442, 1516.2499, 45.0787, 9.2543, 18.6442, 289.6, 5.8292, 1B
2009/03/22, 01:37:02, 24.753967, -112.965667, , , 319.0, 11.50, 321.7, 16.846, 1012.85, 12.8, 76.826, 320.8, , , , 33.8009, 18.6042, 1516.1699, 45.0768, 9.2713, 18.6042, 296.8, 6.3621, 1B
2009/03/22, 01:38:02, 24.756533, -112.967983, , , 319.0, 11.90, 321.2, 16.808, 1013.01, 11.4, 75.639, 320.8, , , , 33.8441, 18.5744, 1516.1327, 45.0991, 9.3093, 18.5744, 284.9, 6.6018, 1B
2009/03/22, 01:39:02, 24.759117, -112.970317, , , 322.0, 11.80, 321.7, 16.800, 1013.01, 10.1, 75.738, 321.3, , , , 33.8460, 18.5524, 1516.0714, 45.0799, 9.3061, 18.5524, 287.1, 6.4504, 1B
2009/03/22, 01:40:02, 24.761700, -112.972633, , , 320.0, 11.80, 321.6, 16.792, 1012.99, 8.9, 75.110, 320.9, , , , 33.8678, 18.5346, 1516.0446, 45.0884, 9.2688, 18.5346, 293.3, 6.7026, 1B
2009/03/22, 01:41:01, 24.764233, -112.974967, , , 320.0, 12.10, 322.0, 16.800, 1012.94, 7.9, 75.516, 321.6, , , , 33.9014, 18.5262, 1516.0575, 45.1199, 9.2855, 18.5262, 287.6, 6.9910, 1B
2009/03/22, 01:42:01, 24.766817, -112.977300, , , 320.0, 12.20, 322.0, 16.800, 1013.13, 6.6, 75.792, 321.5, , , , 33.9598, 18.5292, 1516.1299, 45.1914, 9.3964, 18.5292, 287.0, 6.1614, 1B
2009/03/22, 01:43:01, 24.769400, -112.979667, , , 324.0, 12.60, 322.3, 16.839, 1012.92, 5.9, 77.187, 322.0, , , , 33.9670, 18.5395, 1516.1678, 45.2101, 9.3701, 18.5395, 292.2, 5.7052, 1B
2009/03/22, 01:44:01, 24.771983, -112.982017, , , 319.0, 11.90, 321.8, 16.839, 1013.17, 5.1, 77.187, 321.9, , , , 33.9702, 18.5502, 1516.2005, 45.2294, 9.4091, 18.5502, 288.3, 5.4863, 1B
2009/03/22, 01:45:01, 24.774550, -112.984383, , , 319.0, 12.10, 321.3, 16.808, 1013.10, 4.8, 76.597, 321.1, , , , 33.9569, 18.5586, 1516.2109, 45.2326, 9.4065, 18.5586, 281.8, 6.1579, 1B
2009/03/22, 01:46:02, 24.777083, -112.986750, , , 318.0, 12.10, 321.5, 16.839, 1012.99, 4.4, 77.386, 320.9, , , , 33.9996, 18.5656, 1516.2831, 45.2755, 9.4263, 18.5656, 289.0, 6.2450, 1B
2009/03/22, 01:47:02, 24.779583, -112.989183, , , 316.0, 12.10, 321.2, 16.862, 1013.05, 4.3, 77.508, 320.7, , , , 33.9804, 18.5778, 1516.2966, 45.2647, 9.3578, 18.5778, 290.0, 6.1401, 1B
2009/03/22, 01:48:01, 24.782050, -112.991617, , , 320.0, 12.20, 322.5, 16.892, 1013.08, 4.0, 77.830, 321.7, , , , 34.0007, 18.5984, 1516.3671, 45.3050, 9.4306, 18.5984, 292.6, 6.3401, 1B
2009/03/22, 01:49:02, 24.784567, -112.994017, , , 318.0, 12.00, 321.4, 16.877, 1012.98, 3.6, 77.079, 321.5, , , , 34.0311, 18.6272, 1516.4963, 45.3735, 9.5060, 18.6272, 289.3, 7.1291, 1B
2009/03/22, 01:50:01, 24.787067, -112.996450, , , 319.0, 11.80, 322.0, 16.839, 1012.93, 3.6, 76.267, 321.5, , , , 34.0552, 18.6587, 1516.5998, 45.4283, 9.5698, 18.6587, 298.1, 6.9781, 1B
2009/03/22, 01:51:01, 24.789483, -112.998783, , , 317.0, 12.30, 321.3, 16.839, 1013.20, 3.1, 76.313, 320.7, , , , 34.0442, 18.6870, 1516.6593, 45.4398, 9.5943, 18.6870, 284.9, 7.6857, 1B
2009/03/22, 01:52:02, 24.792017, -113.001283, , , 320.0, 11.60, 322.9, 16.785, 1013.07, 3.0, 75.524, 322.6, , , , 34.0524, 18.7091, 1516.7560, 45.4795, 9.6683, 18.7091, 285.0, 7.7943, 1B
2009/03/22, 01:53:02, 24.794567, -113.003600, , , 321.0, 12.10, 323.3, 16.785, 1013.14, 2.7, 75.899, 323.0, , , , 34.0275, 18.7333, 1516.7974, 45.4735, 9.6753, 18.7333, 283.9, 7.5584, 1B
2009/03/22, 01:54:02, 24.797117, -113.005933, , , 321.0, 12.20, 323.8, 16.800, 1013.13, 2.4, 76.895, 324.0, , , , 34.0391, 18.7549, 1516.8725, 45.5087, 9.6483, 18.7549, 285.5, 6.9718, 1B
2009/03/22, 01:55:01, 24.799700, -113.008167, , , 320.0, 11.70, 324.4, 16.800, 1013.10, 2.2, 76.895, 323.6, , , , 34.0321, 18.7728, 1516.9076, 45.5151, 9.7231, 18.7728, 286.1, 7.3205, 1B
2009/03/22, 01:56:02, 24.802267, -113.010417, , , 321.0, 11.60, 324.2, 16.769, 1013.03, 1.6, 76.068, 323.6, , , , 34.0200, 18.7883, 1516.9468, 45.5187, 9.6371, 18.7883, 290.9, 7.3094, 1B
2009/03/22, 01:57:02, 24.804833, -113.012667, , , 321.0, 12.10, 324.1, 16.762, 1013.21, 1.4, 75.960, 323.9, , , , 34.0074, 18.8018, 1516.9713, 45.5169, 9.7328, 18.8018, 287.8, 6.8427, 1B
2009/03/22, 01:58:02, 24.807433, -113.014933, , , 321.0, 11.80, 324.2, 16.746, 1013.04, 1.4, 75.485, 324.2, , , , 34.0149, 18.8141, 1517.0150, 45.5380, 9.6561, 18.8141, 293.1, 8.0843, 1B
2009/03/22, 01:59:02, 24.810017, -113.017217, , , 322.0, 12.10, 324.6, 16.723, 1013.12, 1.1, 75.301, 324.6, , , , 34.0787, 18.8321, 1517.1385, 45.6320, 9.7210, 18.8321, 291.3, 7.4683, 1B
2009/03/22, 02:00:02, 24.812617, -113.019483, , , 322.0, 12.20, 325.1, 16.754, 1013.23, 1.0, 76.060, 324.1, , , , 34.0696, 18.8506, 1517.1812, 45.6393, 9.6886, 18.8506, 288.4, 7.0617, 1B
2009/03/22, 02:01:01, 24.815133, -113.021683, , , 321.0, 12.30, 325.1, 16.738, 1013.10, 1.0, 75.692, 324.4, , , , 34.1036, 18.8667, 1517.2599, 45.6939, 9.7351, 18.8667, 288.6, 7.5293, 1B
2009/03/22, 02:02:01, 24.817717, -113.023933, , , 323.0, 11.50, 324.5, 16.777, 1013.39, 1.0, 77.286, 323.8, , , , 34.0722, 18.8801, 1517.2659, 45.6715, 9.9136, 18.8801, 286.0, 7.6201, 1B
2009/03/22, 02:03:02, 24.820333, -113.026167, , , 322.0, 12.20, 324.3, 16.754, 1013.39, 1.0, 75.976, 323.9, , , , 34.0383, 18.8886, 1517.2547, 45.6393, 9.6713, 18.8886, 281.8, 7.3135, 1B
2009/03/22, 02:04:02, 24.822950, -113.028433, , , 323.0, 12.20, 324.6, 16.785, 1013.34, 1.1, 77.125, 324.4, , , , 34.0078, 18.8903, 1517.2251, 45.6044, 9.7122, 18.8903, 277.2, 7.1170, 1B